Location: Linton
(52.0943°N, 0.2848°E)
Time: 12:03:18
(UTC+00:00)

N. Korean satellite - Visible Passes

Search period start: 18 November 2017 00:00
Search period end: 28 November 2017 00:00
Orbit: 460 x 515 km, 97.2° (Epoch: 17 November)

Date Brightness Start Highest point End Pass type
(mag) Time Alt. Az. Time Alt. Az. Time Alt. Az.
18 Nov 6.5 17:33:17 10° SSE 17:36:45 62° ENE 17:40:18 10° N visible
18 Nov 9.9 19:09:04 10° WSW 19:10:42 13° W 19:12:21 10° WNW visible
19 Nov 8.3 06:28:21 10° NNE 06:31:52 39° E 06:35:23 10° SSE visible
19 Nov 7.1 17:10:09 10° SE 17:13:22 34° ENE 17:16:39 10° N visible
19 Nov 9.1 18:44:12 10° SW 18:47:00 22° W 18:49:51 10° NW visible
20 Nov 9.4 06:05:14 10° NE 06:08:15 23° E 06:11:16 10° SSE visible
20 Nov 7.8 16:47:20 10° ESE 16:50:02 21° ENE 16:52:48 10° NNE visible
20 Nov 8.0 18:20:04 10° SSW 18:23:21 38° W 18:26:46 10° NNW visible
21 Nov 10.0 05:42:36 10° ENE 05:44:34 14° E 05:46:31 10° ESE visible
21 Nov 6.8 17:56:17 10° S 17:59:49 71° WSW 18:03:25 10° NNW visible
22 Nov 7.1 06:51:16 10° NNE 06:55:00 70° E 06:58:46 10° S visible
22 Nov 6.5 17:32:50 10° SSE 17:36:19 62° ENE 17:39:54 10° N visible
22 Nov 9.9 19:08:34 10° WSW 19:10:16 13° W 19:12:01 10° WNW visible
23 Nov 8.3 06:27:55 10° NNE 06:31:28 39° E 06:35:00 10° SSE visible
23 Nov 7.1 17:09:40 10° SE 17:12:55 34° ENE 17:16:15 10° N visible
23 Nov 9.1 18:43:43 10° SW 18:46:33 22° W 18:49:27 10° NW visible
24 Nov 9.4 06:04:47 10° NE 06:07:50 23° E 06:10:51 10° SSE visible
24 Nov 7.8 16:46:50 10° ESE 16:49:35 21° ENE 16:52:23 10° NNE visible
24 Nov 8.0 18:19:33 10° SSW 18:22:54 38° W 18:26:20 10° NNW visible
25 Nov 10.0 05:42:08 10° ENE 05:44:07 14° E 05:46:05 10° ESE visible
25 Nov 6.8 17:55:46 10° S 17:59:20 72° W 18:02:59 10° NNW visible
26 Nov 7.1 06:50:47 10° NNE 06:54:33 70° ESE 06:58:18 10° S visible
26 Nov 6.5 17:32:18 10° SSE 17:35:50 62° ENE 17:39:27 10° N visible
26 Nov 9.9 19:07:58 10° WSW 19:09:46 13° W 19:11:35 10° WNW visible
27 Nov 8.3 06:27:25 10° NNE 06:30:59 39° E 06:34:32 10° SSE visible
27 Nov 7.2 17:09:07 10° SE 17:12:24 35° ENE 17:15:46 10° N visible
27 Nov 9.1 18:43:08 10° SSW 18:46:02 22° W 18:48:58 10° NW visible
